Location: Goettingen
(51.5300°N, 9.9433°E)
Time: 14:49:24
(UTC+02:00)

ISS - Pass Details

Date: 28 September 2022
Orbit: 414 x 417 km, 51.6° (Epoch: 28 September)

Event Time Altitude Azimuth Distance (km) Brightness Sun altitude
Rises 19:41:57 0° 277° (W) 2,361 2.8 -6.6°
Reaches altitude 10° 19:44:03 10° 277° (W) 1,497 0.9 -6.9°
Maximum altitude 19:47:24 86° 191° (S) 424 -3.7 -7.4°
Enters shadow 19:50:40 11° 100° (E) 1,450 -1.7 -7.9°
